Wind_Speed
18 19 19 20 21 22 23 22 21 21 20 19 18 18 17 16 16 15 15 15 14 14 15 15 14 14 14 15 15 16 17 17 18 18 19 20 20 20 21 21 21 22 22
19 19 20 20 21 21 22 23 23 22 22 21 20 19 18 17 17 16 16 15 15 15 16 16 15 15 15 16 16 17 18 19 19 19 20 20 21 21 21 22 22 22 23
21 21 21 21 21 21 22 22 23 23 23 23 22 21 20 19 18 17 17 16 17 17 17 17 17 17 17 17 18 18 19 20 20 20 20 21 21 21 21 22 22 23 23
22 22 22 23 23 22 23 23 23 24 24 24 23 22 21 20 19 19 18 18 18 18 18 18 19 19 19 19 19 20 20 21 21 21 21 21 22 22 22 23 23 23 24
22 22 23 23 23 23 23 23 23 24 24 24 24 23 22 21 21 20 19 19 19 19 19 20 20 20 20 20 20 20 21 21 21 22 22 22 23 23 24 24 24 24 24
23 23 23 23 24 24 24 24 24 24 24 24 25 24 23 22 21 21 20 20 20 20 20 20 21 21 21 21 21 21 21 22 22 22 22 23 24 24 24 25 25 25 25
24 24 24 25 25 25 26 26 26 26 25 25 25 24 24 23 23 22 21 21 21 21 21 21 21 21 21 21 21 21 22 22 23 23 23 24 24 25 25 25 25 25 25
26 25 26 26 26 26 26 26 27 27 26 26 25 25 25 24 24 23 22 22 21 21 21 20 20 20 21 21 21 22 22 22 22 22 23 25 25 25 25 25 25 25 25
27 26 28 28 28 27 27 27 26 26 26 26 26 26 25 25 24 24 23 22 22 21 21 20 20 21 21 21 21 22 22 22 23 23 24 26 26 26 26 27 27 26 26
30 28 29 29 29 28 28 27 27 26 26 26 26 26 25 25 25 24 24 23 23 22 21 21 21 21 21 22 22 23 23 24 25 26 27 28 28 29 29 30 30 29 29
31 31 30 30 30 29 29 29 28 27 26 26 26 26 25 25 25 25 25 25 24 23 23 23 22 22 23 23 24 24 25 26 27 27 29 30 30 30 31 31 31 31 32
32 32 31 31 31 30 30 29 29 28 27 26 26 26 25 25 25 26 26 26 26 26 25 25 25 25 25 26 26 27 27 28 28 27 29 29 28 28 29 30 31 31 32
32 33 32 32 32 32 31 31 30 29 28 27 27 27 26 26 25 25 26 26 27 27 28 28 27 28 28 28 29 29 29 29 29 27 28 28 27 27 28 29 29 30 31
31 32 33 33 33 33 33 32 32 31 30 30 29 28 28 27 26 26 26 26 27 28 29 30 30 30 31 31 30 30 30 30 30 28 28 28 28 28 28 29 30 30 30
32 31 33 34 34 34 34 33 33 32 32 31 30 30 29 29 28 27 27 27 28 29 30 31 31 32 32 32 32 32 31 31 31 30 29 30 30 30 30 30 31 32 32
33 33 33 35 36 36 35 35 34 34 33 32 32 32 32 31 31 30 29 28 29 29 31 32 33 33 33 34 34 33 33 32 32 31 30 31 31 32 32 32 33 33 34
33 35 35 35 37 37 36 36 36 35 35 34 34 33 33 33 33 32 31 31 31 31 32 33 34 34 34 35 35 34 34 34 33 33 32 32 33 34 35 35 36 36 37
34 36 37 37 37 38 38 37 37 37 36 36 35 35 35 35 35 34 33 33 33 33 34 35 35 36 36 36 36 36 36 36 35 35 35 35 35 36 37 38 39 40 41
35 37 38 38 38 39 39 39 38 38 37 37 36 35 35 36 36 36 36 35 35 36 36 36 37 37 37 37 37 37 38 37 37 38 38 38 39 40 40 41 42 43 45
37 39 40 40 40 40 41 40 39 39 39 38 36 36 36 36 37 37 37 37 38 38 39 38 38 38 38 39 39 39 39 40 40 41 41 42 42 43 44 44 45 46 48
40 41 42 42 41 42 43 42 40 40 40 39 38 37 37 37 38 38 38 39 39 39 39 39 39 39 40 40 41 41 42 42 43 44 45 46 46 46 47 48 49 50 51
43 44 44 45 44 44 45 44 43 42 41 39 39 38 38 38 39 39 40 40 40 40 39 40 40 41 41 42 42 43 44 44 45 46 48 49 49 49 50 51 52 53 54
47 47 47 47 48 47 47 47 46 44 42 40 40 39 39 39 39 40 40 40 41 40 40 41 41 42 42 43 44 45 46 47 47 48 49 50 50 51 52 53 55 57 58
50 51 50 50 50 51 50 49 47 46 44 42 41 40 40 39 39 39 40 41 41 41 41 41 42 41 42 43 44 45 47 49 50 50 50 51 51 52 53 55 57 59 61
54 54 53 53 52 53 53 50 48 48 46 44 43 41 40 40 40 40 40 41 41 41 42 42 41 42 43 44 45 46 48 50 51 52 51 51 53 54 56 57 58 60 62
57 57 56 55 54 53 53 51 50 49 48 46 44 42 41 41 40 40 40 40 41 41 41 42 42 43 44 46 46 48 50 51 52 53 53 53 53 55 57 59 61 63 64
Wind_Direction
253 252 252 253 254 256 257 258 259 261 262 263 264 264 265 264 261 258 256 254 251 251 253 257 261 265 269 272 275 276 277 278 279 280 281 281 281 281 280 280 281 284 287
253 252 252 252 253 254 255 256 256 257 259 261 262 264 265 265 263 261 259 257 255 254 254 256 259 262 265 268 271 273 275 277 280 282 283 283 283 282 282 282 282 284 286
254 253 253 254 255 255 255 255 255 256 257 258 259 262 263 264 263 262 259 258 258 257 257 258 260 262 264 266 268 271 274 277 280 282 283 283 284 284 283 283 283 284 285
256 257 257 257 258 258 257 256 255 255 255 255 256 257 259 260 261 261 259 259 260 260 261 262 264 266 267 269 271 273 275 277 279 280 281 282 282 282 282 282 283 283 283
258 259 259 258 258 258 259 258 257 256 255 255 254 255 256 257 258 258 258 258 260 262 264 266 268 269 271 274 275 276 278 279 279 280 280 280 280 281 281 282 282 282 283
257 259 259 259 259 259 259 260 259 258 257 256 255 255 255 256 256 256 256 257 259 261 264 266 268 270 272 274 275 276 277 278 279 279 280 280 281 282 282 282 282 283 283
256 258 259 260 260 259 259 260 262 261 259 258 257 256 256 256 256 256 255 255 257 259 262 264 266 268 271 272 274 275 276 278 279 281 282 282 283 283 283 283 282 282 282
255 257 259 260 262 262 262 263 263 263 263 262 260 259 257 258 258 257 256 255 256 258 261 263 265 267 269 271 273 275 277 279 281 282 283 283 283 283 283 282 282 282 282
255 256 259 261 264 265 266 266 267 268 267 266 264 262 261 261 261 260 259 258 258 260 261 262 264 267 269 271 273 275 277 279 280 282 283 283 283 282 281 281 282 282 281
257 257 260 262 265 267 269 270 271 272 271 269 268 266 265 264 263 263 262 261 261 262 262 262 264 267 269 271 273 275 277 279 281 282 282 282 281 280 280 280 280 280 281
258 259 260 263 266 268 270 272 273 273 273 272 270 269 269 267 266 265 265 264 263 263 263 263 265 267 269 271 274 276 279 281 282 283 282 282 282 280 279 279 280 280 281
259 260 261 262 265 267 270 271 273 273 273 272 272 271 270 269 268 268 267 266 264 263 263 263 264 266 269 272 275 277 280 282 283 284 283 283 283 282 282 282 282 282 283
259 261 262 262 263 266 268 269 271 273 273 272 272 272 271 270 269 269 268 267 265 263 262 263 264 266 268 271 274 278 281 282 284 284 283 284 284 285 285 285 286 286 286
259 261 262 262 263 264 266 268 269 271 271 271 272 272 272 271 271 271 271 270 267 265 263 263 264 265 268 271 274 277 280 282 283 283 283 283 284 285 286 286 287 288 288
260 260 261 263 263 263 265 266 267 269 269 270 271 272 272 272 273 274 273 272 269 267 266 265 265 266 268 271 274 277 280 282 282 283 283 284 284 285 287 288 289 290 290
262 261 259 261 263 263 264 265 265 266 267 269 270 271 272 273 274 275 275 275 273 270 269 268 268 268 270 272 274 277 280 282 283 283 283 284 285 287 289 290 290 291 292
260 261 260 260 261 263 264 264 264 265 266 267 269 271 272 272 273 274 276 276 275 273 271 271 271 271 272 273 275 278 280 282 284 284 284 285 287 288 290 291 292 292 293
260 261 261 260 261 262 263 263 264 264 265 266 268 269 270 272 273 275 276 277 276 274 274 273 273 273 273 275 276 278 281 283 285 286 286 286 288 289 291 292 293 293 293
260 261 261 261 260 261 262 263 263 264 264 265 267 268 270 271 273 275 276 277 277 276 275 275 274 274 275 276 277 278 281 284 286 287 287 288 289 290 291 292 293 293 294
261 260 260 261 260 260 261 263 263 264 264 265 266 267 269 271 273 275 277 278 278 277 276 276 275 274 275 276 277 279 281 284 286 287 288 289 289 291 292 292 293 293 293
262 261 260 260 259 259 260 261 263 263 264 264 265 267 268 270 273 275 277 279 279 278 278 277 276 277 277 278 278 280 282 284 287 288 289 289 290 291 292 293 293 294 294
262 261 259 258 257 257 258 258 259 260 262 264 264 266 268 270 272 274 277 278 278 278 279 278 277 278 279 279 280 281 282 285 287 289 290 290 291 292 292 293 294 294 294
263 261 259 257 256 255 254 255 256 258 261 263 264 265 267 270 272 274 277 278 278 278 279 280 279 279 280 280 281 283 284 286 287 288 289 290 292 294 295 295 296 296 296
263 261 259 256 254 253 252 253 254 256 258 260 262 264 266 269 272 274 277 278 279 279 280 281 281 281 282 282 283 285 287 288 289 290 290 291 293 294 295 296 297 297 298
261 260 258 256 253 252 251 251 251 252 254 257 260 263 265 268 270 274 276 278 278 279 280 282 283 284 285 285 286 287 289 289 290 291 292 293 295 296 296 297 297 297 297
260 258 257 255 253 251 250 248 248 249 252 254 257 260 263 266 269 272 275 277 278 279 282 283 285 286 287 288 289 290 291 291 291 292 292 293 295 296 297 298 298 298 298
Height
5852 5852 5853 5854 5855 5856 5857 5858 5859 5860 5861 5861 5862 5862 5862 5862 5862 5862 5862 5862 5863 5863 5863 5863 5863 5863 5863 5863 5863 5863 5863 5863 5863 5863 5863 5863 5862 5862 5861 5862 5862 5861 5861
5849 5850 5851 5851 5852 5853 5854 5855 5856 5857 5858 5858 5859 5859 5859 5860 5860 5860 5860 5860 5860 5860 5860 5861 5861 5861 5861 5861 5861 5860 5860 5860 5860 5860 5860 5860 5859 5859 5858 5858 5858 5858 5858
5846 5847 5848 5849 5849 5850 5851 5852 5853 5853 5854 5855 5856 5856 5856 5857 5857 5857 5857 5857 5857 5857 5858 5858 5858 5858 5858 5858 5858 5858 5857 5857 5857 5857 5857 5857 5856 5856 5855 5855 5855 5855 5854
5843 5844 5845 5846 5847 5847 5848 5849 5849 5850 5851 5852 5852 5853 5853 5853 5853 5853 5854 5854 5854 5854 5854 5855 5855 5855 5855 5855 5855 5855 5854 5854 5854 5854 5853 5853 5852 5852 5852 5851 5851 5850 5850
5839 5841 5842 5843 5843 5844 5844 5845 5846 5846 5847 5848 5849 5849 5850 5850 5850 5850 5850 5850 5850 5851 5851 5851 5851 5852 5852 5852 5851 5851 5851 5851 5850 5850 5849 5849 5849 5848 5848 5847 5847 5846 5846
5836 5837 5838 5839 5840 5840 5841 5841 5842 5843 5843 5844 5845 5845 5846 5846 5846 5846 5846 5846 5847 5847 5847 5848 5848 5848 5848 5848 5848 5847 5847 5846 5846 5846 5845 5845 5845 5844 5844 5843 5842 5842 5841
5832 5833 5834 5834 5835 5836 5837 5837 5838 5839 5839 5840 5840 5841 5841 5842 5842 5842 5843 5843 5843 5844 5844 5844 5844 5844 5844 5844 5843 5843 5843 5842 5842 5842 5842 5841 5840 5840 5839 5838 5838 5837 5837
5828 5829 5829 5830 5831 5832 5832 5833 5834 5834 5835 5836 5836 5837 5837 5837 5838 5838 5839 5839 5839 5840 5840 5840 5840 5840 5840 5840 5840 5839 5839 5839 5838 5838 5838 5837 5836 5836 5835 5834 5833 5832 5832
5823 5825 5825 5826 5827 5828 5828 5829 5830 5830 5831 5831 5832 5832 5833 5833 5834 5834 5834 5835 5835 5836 5836 5836 5836 5836 5836 5836 5836 5835 5835 5835 5834 5834 5834 5832 5832 5831 5830 5829 5828 5828 5827
5818 5820 5821 5822 5823 5824 5824 5825 5826 5826 5826 5827 5827 5828 5829 5829 5829 5830 5830 5831 5831 5832 5832 5832 5832 5832 5833 5832 5832 5832 5831 5831 5830 5830 5829 5827 5827 5826 5825 5824 5823 5822 5821
5813 5815 5816 5817 5818 5819 5820 5821 5821 5822 5822 5823 5823 5824 5824 5825 5825 5825 5826 5826 5827 5827 5828 5828 5828 5828 5828 5828 5828 5827 5827 5826 5826 5825 5823 5822 5821 5820 5819 5818 5817 5816 5815
5807 5809 5811 5813 5814 5815 5816 5816 5817 5817 5818 5818 5819 5819 5820 5820 5821 5821 5821 5822 5822 5823 5823 5823 5824 5824 5824 5824 5823 5823 5822 5821 5820 5820 5817 5816 5815 5814 5813 5812 5811 5810 5809
5801 5803 5805 5807 5808 5809 5811 5812 5812 5813 5813 5814 5814 5815 5815 5816 5816 5816 5816 5817 5817 5818 5818 5818 5819 5819 5819 5819 5818 5817 5816 5815 5815 5814 5812 5810 5809 5808 5807 5806 5804 5803 5802
5796 5797 5798 5800 5802 5803 5805 5806 5807 5808 5808 5809 5810 5810 5810 5811 5811 5811 5812 5812 5812 5812 5813 5813 5813 5813 5813 5813 5812 5812 5811 5809 5808 5808 5806 5805 5803 5802 5801 5799 5798 5797 5795
5790 5792 5793 5793 5795 5797 5798 5800 5801 5802 5803 5803 5804 5805 5805 5805 5806 5806 5807 5807 5807 5807 5807 5807 5807 5807 5807 5807 5806 5805 5804 5803 5802 5801 5800 5798 5797 5795 5794 5793 5791 5790 5788
5783 5785 5787 5788 5789 5790 5792 5793 5795 5796 5797 5798 5798 5799 5799 5800 5800 5801 5801 5801 5801 5801 5801 5801 5801 5801 5801 5800 5800 5799 5798 5796 5795 5794 5793 5791 5790 5788 5787 5785 5783 5782 5780
5777 5778 5780 5782 5782 5784 5785 5787 5788 5789 5791 5792 5793 5793 5793 5794 5794 5795 5795 5795 5795 5795 5794 5794 5794 5794 5794 5793 5793 5792 5791 5789 5788 5787 5786 5784 5782 5780 5778 5777 5775 5773 5771
5771 5771 5773 5775 5776 5777 5778 5780 5781 5782 5784 5785 5786 5787 5787 5787 5788 5788 5788 5788 5788 5788 5788 5788 5787 5787 5787 5786 5786 5785 5783 5782 5780 5779 5777 5776 5774 5772 5770 5768 5766 5764 5762
5763 5764 5765 5767 5769 5770 5771 5772 5774 5775 5777 5779 5780 5780 5780 5781 5781 5781 5781 5781 5781 5781 5781 5780 5780 5780 5779 5779 5778 5777 5776 5774 5772 5771 5769 5767 5765 5763 5761 5759 5756 5753 5751
5755 5756 5757 5759 5761 5763 5763 5765 5767 5768 5769 5771 5773 5773 5774 5774 5774 5774 5774 5774 5774 5773 5773 5772 5772 5772 5771 5771 5770 5769 5768 5766 5764 5762 5760 5758 5756 5753 5751 5749 5746 5743 5740
5747 5748 5749 5751 5753 5754 5755 5757 5759 5760 5761 5763 5765 5766 5767 5767 5767 5767 5767 5767 5766 5766 5765 5765 5764 5763 5763 5762 5761 5760 5759 5757 5755 5753 5750 5748 5746 5743 5740 5737 5734 5731 5728
5737 5738 5740 5741 5743 5745 5747 5749 5750 5751 5753 5755 5757 5759 5759 5759 5760 5760 5759 5759 5759 5758 5758 5757 5756 5755 5754 5753 5752 5751 5750 5749 5746 5743 5740 5737 5734 5731 5728 5725 5721 5717 5714
5726 5727 5729 5731 5732 5735 5737 5738 5741 5743 5745 5747 5749 5751 5751 5752 5752 5752 5752 5751 5751 5750 5750 5749 5748 5747 5746 5744 5742 5741 5739 5737 5736 5734 5730 5727 5723 5719 5715 5711 5707 5703 5699
5713 5715 5717 5719 5721 5723 5726 5729 5732 5735 5737 5739 5741 5742 5743 5744 5744 5744 5744 5743 5743 5742 5742 5740 5739 5738 5736 5735 5733 5730 5728 5725 5723 5722 5719 5715 5712 5708 5704 5699 5694 5688 5683
5699 5701 5704 5706 5709 5711 5715 5719 5723 5725 5728 5730 5732 5734 5735 5736 5736 5736 5736 5736 5735 5734 5733 5732 5730 5729 5727 5725 5723 5721 5718 5715 5711 5709 5708 5704 5700 5695 5690 5685 5681 5675 5670
5684 5686 5689 5692 5695 5699 5703 5709 5712 5715 5719 5722 5724 5725 5727 5728 5728 5728 5728 5728 5727 5726 5725 5723 5721 5720 5717 5715 5712 5710 5707 5703 5700 5697 5694 5692 5688 5683 5677 5671 5665 5660 5654